Powrót do katalogu

CZ-6A DEB

AktywnyPO
NORAD 56240·DEBRIS·🇨🇳 China

Wystrzelony Nov 11, 2022 z Taiyuan Satellite Launch Center

Loading…

Następne Przeloty (najbliższe 24 godziny)

TLE

ŚwieżeSource: Space-Track

Epoka: Sep 14, 2026, 14:03 UTC

1 56240U 22151ABG 26257.58550911  .00012593  00000-0  13668-2 0  9990
2 56240  98.8165  17.6436 0061064 326.2118  33.5209 14.86936291192703

Śledź CZ-6A DEB w czasie rzeczywistym z AllMySat

Download on the App Store